Flag for Canada Weather past 2 weeks in Ottawa, Ontario, Canada

Now
46 °F

Scattered clouds.


Feels Like: 41 °F
Forecast: 35 / 58 °F
Wind: 12 mph from East

Location: Ottawa Int'L. Ont.

Current Time: Apr 19, 2015 at 12:18:18 PM

Latest Report: Apr 19, 2015 at 12:00 PM


Visibility: 15 mi

Pressure: 30.33 "Hg

Humidity: 43%

Dew point: 25 °F

Location of OttawaLocation

Historic Weather in Ottawa — Graph

°F

Ottawa temperature yesterday

Maximum temperature yesterday: 59 °F (at 1:00 PM)
Minimum temperature yesterday: 39 °F (at 7:00 AM)
Average temperature yesterday: 49 °F

Past Weeks' High & Low Weather Summary

 TemperatureHumidityPressure
High73 °F (Apr 13, 4:00 PM)100% (Apr 6, 9:00 PM)30.45 "Hg (Apr 6, 9:00 PM)
Low23 °F (Apr 6, 2:00 AM)13% (Apr 15, 4:00 PM)29.40 "Hg (Apr 10, 4:00 PM)
Average42 °F56%30.11 "Hg
* Reported Apr 4 11:00 AM — Apr 19 11:00 AM, Ottawa, Weather by CustomWeather, © 2015

Note: Actual official high and low records may vary slightly from our data, if they occured in-between our weather recording intervals... More about our weather records

Advertising

Ottawa weather history for previous 24 hours

 ConditionsComfort  
Time TempWeatherWind HumidityBarometerVisibility
11:00 AM
Sun, Apr 19
45 °FPassing clouds.8 mph46%30.35 "Hg15 mi
10:00 AM43 °FScattered clouds.10 mph49%30.34 "Hg15 mi
9:00 AM39 °FPassing clouds.13 mph56%30.35 "Hg15 mi
8:00 AM37 °FPassing clouds.12 mph56%30.34 "Hg15 mi
7:00 AM34 °FPassing clouds.9 mph65%30.33 "Hg15 mi
6:00 AM32 °FPassing clouds.6 mph75%30.33 "Hg15 mi
5:00 AM36 °FPassing clouds.12 mph65%30.30 "Hg15 mi
4:00 AM36 °FPassing clouds.6 mph65%30.29 "Hg15 mi
3:00 AM37 °FPassing clouds.6 mph60%30.28 "Hg15 mi
2:00 AM37 °FPassing clouds.9 mph60%30.28 "Hg15 mi
1:00 AM39 °FPassing clouds.9 mph61%30.28 "Hg15 mi
12:00 AM39 °FPassing clouds.12 mph61%30.26 "Hg15 mi
11:00 PM
Sat, Apr 18
41 °FPassing clouds.14 mph57%30.25 "Hg15 mi
10:00 PM43 °FPassing clouds.20 mph53%30.23 "Hg15 mi
9:00 PM46 °FPassing clouds.14 mph50%30.20 "Hg15 mi
8:00 PM50 °FPassing clouds.22 mph40%30.15 "Hg15 mi
7:00 PM52 °FPassing clouds.18 mph38%30.10 "Hg15 mi
6:00 PM55 °FScattered clouds.22 mph36%30.06 "Hg15 mi
5:00 PM57 °FScattered clouds.22 mph31%30.02 "Hg15 mi
4:00 PM57 °FScattered clouds.22 mph33%29.99 "Hg15 mi
3:00 PM57 °FScattered clouds.24 mph36%29.97 "Hg15 mi
2:00 PM59 °FPartly sunny.23 mph39%29.94 "Hg15 mi
1:00 PM59 °FScattered clouds.14 mph36%29.91 "Hg15 mi
12:00 PM54 °FPassing clouds.6 mph44%29.90 "Hg15 mi
Weather by CustomWeather, © 2015

See weather overviewHow to use our weather pages